Weather History for Peru, IN

Change the Weather History Date:

Wednesday, November 21, 2012

  Actual Average Record
Temperature  
Mean Temperature 44 °F -  
Max Temperature 55 °F 45 °F 61 °F (2010)
Min Temperature 33 °F 32 °F 7 °F (2014)
Degree Days  
Heating Degree Days 21    
Moisture  
Dew Point 39 °F    
Average Humidity 99    
Maximum Humidity 100    
Minimum Humidity 71    
Precipitation  
Precipitation 0.00 in - - ()
Sea Level Pressure  
Sea Level Pressure 30.20 in    
Wind  
Wind Speed 1 mph (SSW)    
Max Wind Speed 6 mph    
Max Gust Speed -    
Visibility 2 miles    
Events Fog    
Averages and records for this station are not official NWS values.
T = Trace of Precipitation, MM = Missing Value Source: NWS Daily Summary

Daily Weather History Graph

Daily Weather History Graph

Search for Another Location

Airport:

Trip Planner

Search our weather history database for the weather conditions in past years. The results will help you decide how hot, cold, wet, or windy it might be!

Date:

Astronomy

Nov. 21, 2012 Rise Set
Actual Time 7:38 AM EST 5:22 PM EST
Civil Twilight 7:08 AM EST 5:51 PM EST
Nautical Twilight 6:35 AM EST 6:25 PM EST
Astronomical Twilight 6:02 AM EST 6:57 PM EST
Moon 1:40 PM EST (11/21) 12:55 AM EST (11/21)
Length of Visible Light 10h 42m
Length of Day
9h 43m
First Quarter, 61% of the Moon is Illuminated
Nov 21
First Quarter
Nov 28
Full
Dec 6
Last Quarter
Dec 13
New
Dec 20
First Quarter

Hourly Weather History & Observations

Time (EST) Temp. Windchill Dew Point Humidity Pressure Visibility Wind Dir Wind Speed Gust Speed Precip Events Conditions
12:34 AM 41.0 °F 39.0 °F 39.2 °F 93% 30.17 in 4.0 mi NW 3.5 mph - N/A   Clear
12:55 AM 40.1 °F 38.0 °F 39.6 °F 98% 30.17 in 3.0 mi NW 3.5 mph - N/A   Clear
1:12 AM 41.0 °F - 41.0 °F 100% 30.17 in 2.5 mi Calm Calm - N/A   Clear
1:22 AM 39.2 °F - 39.2 °F 100% 30.17 in 2.0 mi Calm Calm - N/A   Clear
1:25 AM 39.2 °F - 39.2 °F 100% 30.17 in 1.8 mi Calm Calm - N/A   Clear
1:30 AM 39.2 °F - 39.2 °F 100% 30.17 in 0.8 mi Calm Calm - N/A   Clear
1:32 AM 39.2 °F - 39.2 °F 100% 30.17 in 0.5 mi Calm Calm - N/A Fog Fog
1:35 AM 39.2 °F - 39.2 °F 100% 30.17 in 0.5 mi Calm Calm - N/A Fog Fog
1:36 AM 39.2 °F - 39.2 °F 100% 30.17 in 0.2 mi Calm Calm - N/A Fog Fog
1:40 AM 39.2 °F - 39.2 °F 100% 30.17 in 0.2 mi Calm Calm - N/A Fog Fog
1:41 AM 39.2 °F - 39.2 °F 100% 30.17 in 0.5 mi Calm Calm - N/A Fog Fog
1:43 AM 39.2 °F - 39.2 °F 100% 30.17 in 0.5 mi Calm Calm - N/A Fog Fog
1:45 AM 39.2 °F - 39.2 °F 100% 30.17 in 0.8 mi Calm Calm - N/A   Clear
1:50 AM 37.4 °F - 37.4 °F 100% 30.17 in 0.5 mi Calm Calm - N/A Fog Fog
1:54 AM 37.4 °F - 37.4 °F 100% 30.17 in 0.2 mi Calm Calm - N/A Fog Fog
1:58 AM 35.6 °F - 35.6 °F 100% 30.17 in 0.2 mi Calm Calm - N/A Fog Fog
2:13 AM 35.6 °F - 35.6 °F 100% 30.17 in 0.2 mi Calm Calm - N/A Fog Fog
2:24 AM 37.4 °F - 37.4 °F 100% 30.18 in 0.2 mi Calm Calm - N/A Fog Fog
2:35 AM 35.6 °F - 35.6 °F 100% 30.18 in 0.2 mi Calm Calm - N/A Fog Fog
2:43 AM 35.6 °F - 35.6 °F 100% 30.18 in 0.2 mi Calm Calm - N/A Fog Fog
2:46 AM 35.6 °F - 35.6 °F 100% 30.19 in 0.2 mi Calm Calm - N/A Fog Fog
2:53 AM 35.6 °F - 35.6 °F 100% 30.19 in 0.2 mi Calm Calm - N/A Fog Fog
2:54 AM 35.6 °F - 35.6 °F 100% 30.19 in 0.5 mi Calm Calm - N/A Fog Fog
2:57 AM 35.6 °F - 35.6 °F 100% 30.19 in 0.8 mi Calm Calm - N/A   Mist
2:59 AM 35.6 °F - 35.6 °F 100% 30.19 in 1.0 mi Calm Calm - N/A   Mist
3:00 AM 35.6 °F - 35.6 °F 100% 30.19 in 1.2 mi Calm Calm - N/A   Scattered Clouds
3:03 AM 35.6 °F - 35.6 °F 100% 30.19 in 1.2 mi Calm Calm - N/A   Scattered Clouds
3:04 AM 35.6 °F - 35.6 °F 100% 30.19 in 1.0 mi Calm Calm - N/A   Mist
3:07 AM 35.6 °F - 35.6 °F 100% 30.19 in 0.5 mi Calm Calm - N/A Fog Fog
3:10 AM 35.6 °F - 35.6 °F 100% 30.19 in 0.5 mi Calm Calm - N/A Fog Fog
3:11 AM 35.6 °F - 35.6 °F 100% 30.19 in 0.2 mi Calm Calm - N/A Fog Fog
3:16 AM 35.6 °F - 35.6 °F 100% 30.19 in 0.2 mi Calm Calm - N/A Fog Fog
3:55 AM 37.2 °F - 37.2 °F 100% 30.19 in 0.2 mi Calm Calm - N/A Fog Fog
4:55 AM 36.7 °F - 36.7 °F 100% 30.20 in 0.2 mi Calm Calm - N/A Fog Fog
5:08 AM 37.4 °F - 37.4 °F 100% 30.21 in 0.2 mi Calm Calm - N/A Fog Fog
5:18 AM 35.6 °F - 35.6 °F 100% 30.21 in 0.2 mi Calm Calm - N/A Fog Fog
5:55 AM 36.3 °F - 36.3 °F 100% 30.22 in 0.2 mi Calm Calm - 0.00 in Fog Fog
6:55 AM 33.8 °F - 33.8 °F 100% 30.22 in 0.1 mi Calm Calm - N/A Fog Fog
7:28 AM 33.8 °F - 33.8 °F 100% 30.20 in 0.0 mi South 2.3 mph - N/A Fog Fog
7:29 AM 33.8 °F - 33.8 °F 100% 30.20 in 0.1 mi South 2.3 mph - N/A Fog Fog
7:55 AM 33.8 °F - 33.8 °F 100% 30.24 in 0.0 mi Calm Calm - N/A Fog Fog
8:55 AM 34.2 °F - 34.2 °F 100% 30.25 in 0.0 mi Calm Calm - N/A Fog Fog
9:55 AM 36.7 °F - 36.7 °F 100% 30.27 in 0.0 mi Calm Calm - N/A Fog Fog
10:12 AM 37.4 °F - 37.4 °F 100% 30.25 in 0.1 mi WSW 1.2 mph - N/A Fog Fog
10:33 AM 39.2 °F - 39.2 °F 100% 30.26 in 0.1 mi West 2.3 mph - N/A Fog Fog
10:55 AM 41.0 °F - 41.0 °F 100% 30.28 in 0.1 mi Calm Calm - N/A Fog Fog
11:10 AM 41.0 °F - 41.0 °F 100% 30.28 in 0.1 mi Calm Calm - N/A   Mist
11:13 AM 41.0 °F - 41.0 °F 100% 30.28 in 0.3 mi Calm Calm - N/A Fog Fog
11:31 AM 42.8 °F - 42.8 °F 100% 30.27 in 1.5 mi Calm Calm - N/A   Overcast
11:55 AM 45.3 °F - 45.3 °F 100% 30.27 in 2.5 mi Calm Calm - N/A   Partly Cloudy
12:31 PM 48.2 °F - 48.2 °F 100% 30.24 in 4.0 mi NW 2.3 mph - N/A   Clear
1:55 PM 52.5 °F - 52.0 °F 98% 30.24 in 7.0 mi NW 5.8 mph - N/A   Clear
2:55 PM 54.9 °F - 46.6 °F 74% 30.22 in 9.0 mi West 3.5 mph - N/A   Clear
3:55 PM 55.6 °F - 46.2 °F 71% 30.21 in 10.0 mi SW 3.5 mph - N/A   Clear
4:55 PM 52.9 °F - 46.0 °F 78% 30.21 in 10.0 mi West 3.5 mph - N/A   Clear
5:55 PM 47.3 °F - 45.9 °F 95% 30.20 in 7.0 mi Calm Calm - N/A   Clear
6:55 PM 45.9 °F - 45.3 °F 98% 30.21 in 5.0 mi Calm Calm - N/A   Clear
7:29 PM 44.6 °F 43.1 °F 44.6 °F 100% 30.20 in 4.0 mi South 3.5 mph - N/A   Clear
7:55 PM 42.8 °F 40.1 °F 42.8 °F 100% 30.20 in 3.0 mi SSE 4.6 mph - N/A   Clear
8:55 PM 40.6 °F 37.5 °F 40.6 °F 100% 30.20 in 3.0 mi SSE 4.6 mph - N/A   Clear
9:55 PM 39.2 °F 37.0 °F 39.2 °F 100% 30.20 in 2.0 mi South 3.5 mph - N/A   Clear
10:45 PM 39.2 °F - 39.2 °F 100% 30.20 in 1.8 mi Calm Calm - N/A   Clear
10:50 PM 39.2 °F 35.9 °F 39.2 °F 100% 30.20 in 1.0 mi South 4.6 mph - N/A   Clear
10:53 PM 39.2 °F 35.9 °F 39.2 °F 100% 30.19 in 1.2 mi South 4.6 mph - N/A   Clear
10:55 PM 38.8 °F 35.4 °F 38.8 °F 100% 30.19 in 1.2 mi South 4.6 mph - N/A   Clear
10:57 PM 39.2 °F 35.9 °F 39.2 °F 100% 30.19 in 1.5 mi South 4.6 mph - N/A   Clear
11:07 PM 39.2 °F 35.0 °F 39.2 °F 100% 30.19 in 2.0 mi South 5.8 mph - N/A   Clear
11:15 PM 39.2 °F 35.0 °F 39.2 °F 100% 30.19 in 2.5 mi South 5.8 mph - N/A   Clear
11:33 PM 39.2 °F 35.9 °F 39.2 °F 100% 30.19 in 2.0 mi South 4.6 mph - N/A   Clear
11:43 PM 39.2 °F 37.0 °F 39.2 °F 100% 30.19 in 1.8 mi South 3.5 mph - N/A   Clear
11:55 PM 39.9 °F 37.8 °F 39.9 °F 100% 30.19 in 1.8 mi South 3.5 mph - N/A   Clear